CZ-2C DEB

Satellite information

Favourite Embed

Satellite Type and Status

DEBRISIN ORBIT

Key statistics

Satellite CZ-2C DEB at a glance.

Uptime

4712

Days in orbit

Revolutions

≈ 15.1

Per day

Orbit

SSO

Sun Synchronous Orbit

Inclination

97.6

Latest

Satellite identification and parameters

Extended collection of information and parameters for CZ-2C DEB.

Object identification

Identified? True

Debris? True

Object name: CZ-2C DEB

International designator: 2012-056D

Object number (NORAD): 38863

Object ID (CCSDS): 38863

Country: PEOPLES REPUBLIC OF CHINA (PRC)

Current information (Y/N): Y

RCS size: LARGE

Orbital parameters

Period: 95.148 minutes

Inclination: 97.5835 deg

SMA: 6903.867 km

Apoapsis: 532.498 km

Periapsis: 518.965 km

RAAN: 315.4221 deg

Eccentricy: 0.00098004

Argument of periapsis: 324.8361 deg

Mean anomaly: 35.2222 deg

Mean motion: 15.13436422 rev/day

Mean motion (dot): 0.00011988 rev/day2

B* drag term: 0.00067319989 1/REarth

Two-line elements (TLE)

Creation date: Sept. 8, 2025, 3:16 a.m.

Reference frame: TEME

Reference center: EARTH

Epoch: Sept. 7, 2025, 9:34 p.m. UTC

TLE line 0: 0 CZ-2C DEB

TLE line 1: 1 38863U 12056D 25250.89915718 .00011988 00000-0 67320-3 0 9992

TLE line 2: 2 38863 97.5835 315.4221 0009800 324.8361 35.2222 15.13436422700441

Live tracking on map

Real-time ground track for satellite CZ-2C DEB.

In-orbit conjunctions

A list of the most updated potential collisions computed for object CZ-2C DEB.

Target Orbit TCA Probability of collision Miss distance Type
ELECTRON KICK STAGE R/B SSO 2025-02-14 04:14:16 0.0001056684 385.0 (m) ROCKET BODY

Associated space launch

CZ-2C DEB was lifted into orbit during the mission ‘Long March 2C/SMA | Shijian 9A & Shijian 9B’, on board a Long March 2 space rocket.

The launch took place on Oct. 14, 2012, 3:25 a.m. from Launch Complex 9.

For more information about the launch, click the button.

Launch to space Long March 2C/SMA | Shijian 9A & Shijian 9B
Long March 2C/SMA | Shijian 9A & Shijian 9B

Agency: N/A

Status: Launch Successful

Launch date: Oct. 14, 2012, 3:25 a.m. UTC

Rocket: Long March 2

Launch pad: Launch Complex 9

Location: Taiyuan Satellite Launch Center, People's Republic of China

...

Latest news about this satellite

There are no fresh news available about this satellite. Check back as we update our databases every day.


Newsletter sign-up

Weekly statistics, charts and insights to help you stay on top of the space industry.